RH
70 95 96 100 99 99 100 100 77 90 100 100 100 100 86 100 100 92 83 97 100 85 99 97 100 100 95 92 98 100 100 100 100 100 100 97 98 89 89 80 78 74 68 58
59 93 95 100 100 95 100 100 100 100 100 98 90 100 89 84 98 96 99 100 100 99 93 72 79 100 100 100 100 88 83 86 88 94 93 93 81 68 59 54 45 38 28 25
68 72 93 97 97 87 85 76 90 100 100 90 92 82 78 100 99 94 86 88 90 90 85 90 97 100 100 100 100 97 98 87 68 70 68 65 56 41 34 28 24 22 25 27
67 77 76 80 84 85 81 96 100 100 100 100 100 100 99 100 95 91 99 100 99 100 95 87 72 81 84 96 90 86 76 66 46 36 38 34 29 27 24 25 26 28 28 37
60 68 79 87 94 90 98 96 100 98 98 91 82 87 85 78 57 53 73 93 95 96 73 76 74 60 52 36 32 47 46 39 32 30 30 27 26 27 29 28 27 30 35 39
53 60 81 86 90 94 83 100 96 97 100 100 95 99 98 84 91 91 100 76 43 54 76 97 70 52 49 43 35 32 32 33 31 28 28 29 30 27 26 27 30 30 32 39
88 99 92 89 68 87 100 83 98 98 92 100 92 88 62 73 83 99 61 33 26 41 67 94 77 42 34 36 39 38 32 28 29 28 29 30 29 28 27 26 27 30 35 40
100 100 100 100 100 86 94 77 92 99 89 84 84 84 72 80 76 84 50 59 53 92 88 56 24 38 45 44 38 33 34 34 35 38 33 34 33 31 30 28 32 40 58 55
98 100 97 86 100 99 94 79 88 99 95 80 81 48 49 22 39 53 57 92 100 100 98 34 49 50 45 40 37 37 37 39 43 47 48 52 48 44 38 44 55 68 59 59
71 98 92 77 74 83 95 78 80 70 40 33 31 54 63 46 36 51 44 38 83 87 42 45 49 50 50 46 44 45 48 54 62 66 67 63 50 50 60 63 66 59 64 61
36 43 55 48 62 70 70 65 53 35 52 83 62 99 98 68 42 34 33 37 44 41 46 49 42 42 44 46 47 46 48 56 61 63 59 56 53 59 58 56 56 60 66 59
25 25 28 30 36 35 43 25 20 57 36 86 68 85 58 34 34 43 51 54 44 46 46 50 48 47 50 49 51 54 51 50 57 70 64 56 50 50 48 53 65 67 61 58
62 49 26 37 37 16 20 23 38 62 91 94 69 42 34 34 53 55 49 45 47 49 48 50 50 49 51 56 62 63 66 70 80 72 56 49 45 47 51 59 67 64 59 66
69 68 74 66 57 70 81 73 82 87 75 53 31 25 57 42 50 54 57 54 54 49 53 48 44 44 48 57 68 86 92 80 65 56 50 46 48 49 56 69 67 60 68 79
44 47 46 48 42 44 52 56 56 52 36 26 23 40 62 50 54 64 66 68 64 74 69 50 51 63 65 66 66 56 46 46 46 48 47 48 55 62 68 69 65 68 75 79
29 25 23 23 22 24 26 25 23 23 22 25 33 60 44 48 68 69 62 54 57 59 52 62 67 59 65 71 64 61 54 48 48 50 53 65 62 65 72 68 70 76 76 71
35 42 50 48 40 34 33 25 33 32 27 49 53 48 63 60 55 63 80 99 94 78 77 80 78 74 73 71 65 66 57 54 52 51 62 66 72 75 70 74 80 79 73 65
48 47 62 41 30 31 24 30 36 44 54 56 68 72 69 71 71 66 70 74 78 74 73 74 73 78 80 70 76 77 64 58 53 60 68 74 71 70 75 80 76 71 66 60
54 51 55 41 39 34 31 42 64 57 55 65 75 75 76 85 80 82 86 85 74 71 70 63 68 74 71 68 71 73 69 61 62 67 71 74 72 77 87 76 73 69 63 65
47 52 55 47 51 64 75 68 62 56 60 77 77 76 76 74 74 81 79 70 67 69 70 77 94 93 83 79 78 71 71 71 75 79 78 76 84 85 71 70 71 64 64 49
45 61 61 60 60 80 80 68 62 61 62 73 77 72 70 73 82 84 76 82 82 77 75 79 79 67 73 83 88 84 70 75 74 71 74 77 78 73 78 72 66 61 44 38
46 56 56 65 65 74 86 88 76 74 78 85 76 75 80 87 92 86 82 82 77 75 87 79 75 77 82 89 87 68 71 72 68 72 73 66 76 86 73 66 57 38 33 34
40 46 52 64 72 76 84 81 87 93 95 78 82 84 88 87 85 82 96 99 91 86 81 89 95 88 90 88 67 73 75 66 72 64 63 81 88 77 71 57 38 33 33 26
46 50 56 57 63 85 84 91 92 99 97 91 92 94 93 90 80 100 100 93 86 75 75 80 84 94 90 68 75 74 67 71 67 73 86 92 85 71 58 44 33 31 22 15
48 52 56 68 56 75 83 94 98 100 98 92 95 100 83 84 100 100 99 84 74 72 75 82 89 90 66 72 74 68 71 74 78 82 92 90 72 64 51 33 29 22 14 10
60 68 66 68 89 77 72 75 78 84 86 94 98 80 97 100 100 89 74 67 70 75 80 89 85 63 72 70 70 74 76 81 84 90 81 75 63 44 30 27 21 16 10 10
Wind_Speed
10 18 27 30 31 34 35 34 30 24 28 30 24 21 21 24 24 26 24 29 36 40 37 35 29 34 37 39 38 44 62 70 67 68 71 79 83 86 83 83 84 81 81 82
14 22 24 29 31 30 30 28 26 27 29 28 24 21 22 23 24 25 28 30 31 33 35 38 36 33 41 43 47 49 50 57 64 66 66 69 73 75 77 74 72 69 65 64
14 19 26 27 26 30 27 21 20 24 26 23 25 22 17 20 22 24 25 25 27 30 31 34 34 41 42 44 45 47 54 58 58 61 64 67 67 64 60 57 56 54 52 53
15 17 22 25 27 22 20 19 21 21 25 29 24 22 24 25 26 22 20 24 28 30 30 33 35 38 40 43 45 50 54 57 55 55 53 51 49 47 49 47 47 48 50 53
17 17 20 19 24 22 21 19 19 21 24 26 30 29 28 29 29 24 28 32 32 32 33 37 38 37 39 40 41 43 45 45 43 42 42 42 42 40 41 45 47 51 55 62
15 18 22 21 23 26 22 19 20 20 21 24 26 25 25 27 25 26 29 33 31 24 18 29 31 33 32 33 34 36 36 39 39 39 40 40 41 41 44 47 51 55 61 65
16 17 21 22 22 25 23 24 20 24 28 26 27 29 26 26 28 29 36 36 30 24 21 29 35 35 30 29 30 34 35 37 39 41 42 43 44 45 49 52 58 63 69 72
18 18 20 26 26 26 27 27 22 25 27 29 32 30 30 31 31 35 30 29 29 37 30 33 30 27 28 30 32 33 35 39 43 46 47 49 53 55 58 63 67 72 78 80
25 23 26 26 28 29 33 27 26 26 30 32 34 30 28 29 24 28 27 31 33 34 39 27 26 30 30 32 34 36 39 44 49 54 56 58 60 61 64 69 74 80 81 82
26 32 31 31 30 31 31 28 29 29 31 31 29 27 23 28 23 24 26 30 37 40 31 29 27 29 33 35 37 39 41 46 52 58 61 64 64 68 71 76 79 79 83 88
31 33 34 30 30 34 35 35 35 31 29 31 30 29 30 30 27 24 24 24 26 29 32 33 32 32 35 39 43 46 47 49 55 59 62 65 67 70 73 74 77 83 87 92
28 27 28 28 30 30 35 34 32 29 26 28 29 28 32 29 27 21 21 26 30 31 32 33 34 36 40 44 47 51 51 50 53 57 61 65 67 69 73 77 83 86 91 94
27 28 27 24 26 24 26 25 25 25 27 30 30 30 30 25 22 23 28 30 31 33 33 35 37 39 42 45 49 51 55 57 61 65 68 68 66 73 78 82 86 92 95 93
28 28 28 28 28 23 26 26 27 28 32 30 33 27 26 23 24 26 31 33 36 35 37 37 38 40 43 46 50 54 58 62 67 69 67 67 74 79 84 87 92 97 94 93
29 31 29 29 29 28 29 28 30 32 35 30 31 27 26 25 25 30 33 38 40 42 46 45 44 46 49 51 54 57 61 61 64 68 71 76 82 83 88 92 98 95 95 97
29 29 27 29 29 26 29 31 34 35 34 29 27 27 28 25 30 35 37 38 39 43 47 51 53 52 53 59 63 63 62 64 68 74 80 84 87 89 93 97 97 97 99 104
28 28 27 29 30 31 33 33 32 34 29 27 27 25 29 35 35 35 38 41 46 50 53 55 58 59 59 62 66 68 68 71 76 81 84 88 91 94 97 97 98 101 106 111
31 28 27 29 28 29 33 32 30 30 25 25 29 32 35 37 39 41 43 46 50 52 52 55 59 64 68 69 69 73 77 80 84 87 90 92 96 97 96 98 102 107 111 116
32 28 27 27 27 28 29 28 28 27 28 31 34 37 36 41 44 46 48 50 52 53 57 61 64 66 67 70 74 77 81 85 90 92 93 96 99 98 100 104 110 116 119 117
32 28 24 29 29 29 29 32 33 32 31 37 40 41 44 46 49 52 53 53 54 58 61 65 68 71 72 76 79 83 88 91 92 95 98 99 99 101 105 110 114 119 117 113
33 31 27 30 32 34 33 36 35 37 39 42 45 46 49 51 54 57 57 57 58 62 66 66 70 73 77 80 84 88 90 91 95 97 96 97 101 107 112 115 120 117 113 112
37 34 32 31 33 35 36 38 39 40 44 48 49 49 51 54 58 61 60 59 61 64 68 73 76 77 82 85 88 90 91 96 98 98 99 102 107 112 116 120 118 115 112 115
40 37 36 34 35 37 37 40 41 43 49 49 50 52 55 57 58 59 60 62 65 67 71 76 82 86 88 91 91 91 97 101 100 101 103 108 114 117 121 119 115 113 114 115
40 41 38 38 38 37 38 40 41 46 51 51 53 56 57 58 59 61 65 68 71 74 77 81 85 89 92 92 94 98 104 102 102 105 109 114 118 122 122 119 115 114 112 110
41 43 42 43 40 39 40 42 46 50 53 53 55 59 60 59 60 65 70 75 78 79 83 87 90 92 93 94 98 105 102 103 106 111 115 118 122 124 121 115 113 112 110 106
44 43 45 44 44 43 44 47 50 53 55 55 59 60 60 63 67 72 76 79 82 86 89 91 93 95 95 99 105 104 104 107 112 116 119 122 123 119 115 112 111 110 105 100
Wind_Direction
213 189 192 194 197 196 195 196 203 207 213 219 219 220 218 215 225 227 226 227 230 235 235 236 234 251 248 243 241 255 255 256 261 267 269 267 268 274 281 283 283 284 286 288
236 192 200 192 202 203 199 200 206 216 214 218 217 223 214 212 224 225 227 230 232 239 237 242 234 250 256 255 258 258 261 263 260 264 268 268 268 273 276 279 279 282 286 287
242 211 199 208 209 202 202 198 210 209 217 229 224 223 223 225 224 234 238 236 239 246 247 249 251 251 252 260 265 267 266 262 265 268 270 272 273 275 277 279 280 283 291 296
255 219 212 214 212 208 212 205 215 226 225 219 226 233 225 230 236 231 234 243 248 256 257 260 256 257 260 262 266 268 269 271 272 271 271 271 273 274 278 285 290 293 299 302
262 256 233 225 216 217 213 224 228 224 230 233 235 236 246 257 256 249 247 242 244 256 269 267 265 265 265 266 265 266 268 269 269 270 270 272 274 283 288 290 296 298 303 308
262 256 240 219 219 222 223 226 224 221 232 239 244 244 248 254 266 274 265 260 256 244 270 280 266 264 267 266 264 265 265 267 265 269 274 276 279 285 289 292 295 300 303 307
255 252 239 236 236 220 231 230 229 237 236 241 244 254 251 255 257 269 271 265 262 250 260 267 266 271 269 265 266 265 267 273 274 278 280 285 287 291 291 293 297 304 307 308
258 245 238 238 239 233 238 243 242 247 247 248 252 255 267 269 272 273 258 261 259 254 265 280 265 265 268 269 267 273 279 284 287 290 291 293 292 290 294 298 304 309 309 309
255 241 242 240 238 239 246 249 245 247 256 257 259 268 261 259 249 252 252 252 258 263 276 270 270 271 269 271 276 281 286 290 292 293 295 298 300 298 299 305 308 307 307 308
244 249 245 244 242 246 250 246 250 254 258 260 263 271 270 260 252 250 252 252 253 257 261 262 260 268 278 283 286 288 293 296 297 298 296 297 300 302 303 305 305 306 307 310
248 243 248 252 248 245 246 250 252 254 250 249 257 263 261 260 263 253 253 250 253 258 261 262 269 279 284 288 292 295 296 297 297 296 295 298 302 302 304 305 305 306 308 310
258 259 254 254 256 249 251 258 260 253 250 247 250 248 251 254 256 257 257 265 267 265 269 278 284 289 292 296 297 298 299 300 301 302 302 303 305 303 305 306 307 308 310 310
253 253 250 242 247 245 246 248 245 242 246 249 251 245 251 247 254 263 265 264 268 276 282 287 290 292 295 297 300 302 306 307 304 302 302 304 303 304 307 307 308 310 310 309
248 249 248 251 252 249 247 247 247 247 247 246 247 252 243 251 254 267 276 279 278 282 284 285 289 292 293 295 298 300 302 302 302 304 306 307 306 307 308 308 309 312 311 310
243 247 252 253 253 249 248 251 248 242 244 245 251 248 242 255 268 273 279 282 292 298 296 296 297 299 300 300 297 298 301 303 305 307 308 309 310 310 310 310 311 311 310 309
247 247 245 249 254 251 250 245 246 248 250 251 246 245 254 263 268 270 276 284 287 289 293 299 300 300 301 302 303 306 308 310 311 311 312 312 311 311 311 311 311 310 310 311
243 246 249 252 254 251 252 252 251 252 250 239 247 257 263 265 270 278 285 291 294 298 301 302 302 304 302 302 305 308 310 311 312 313 311 311 312 311 311 310 310 311 312 313
244 247 251 256 257 254 254 251 247 246 244 247 254 259 266 276 283 288 289 290 294 296 297 298 300 302 304 307 309 310 310 310 312 312 312 311 311 310 310 310 311 313 314 314
243 249 255 261 256 253 251 247 243 247 251 255 260 267 274 278 283 287 290 291 294 296 298 299 299 302 305 308 308 308 309 309 311 311 310 311 311 312 312 312 314 315 316 316
243 248 257 258 251 251 251 251 251 254 258 262 268 274 279 282 285 288 290 294 297 298 299 302 303 304 306 307 308 308 310 312 312 312 311 312 312 311 313 314 314 316 316 316
240 246 251 255 250 249 252 255 258 260 262 266 271 275 278 284 287 289 293 296 297 298 299 301 302 303 305 306 308 309 310 310 311 310 310 310 312 314 315 315 316 317 316 316
242 244 249 254 253 252 252 258 260 265 268 269 272 277 280 284 288 292 294 294 296 298 299 300 301 303 305 307 308 309 309 310 311 310 311 313 314 315 316 316 317 317 316 317
243 243 246 251 254 254 256 258 265 268 268 272 276 279 282 286 289 291 292 292 294 296 298 300 302 305 307 308 309 308 309 311 310 311 314 315 315 316 316 316 318 318 317 316
243 244 247 251 254 259 260 263 265 267 271 275 278 281 284 287 288 290 290 290 292 295 297 299 302 304 307 308 308 310 311 310 312 315 315 315 315 316 316 318 318 317 316 316
244 247 250 255 257 259 262 264 266 268 272 277 281 282 284 286 288 288 289 291 294 298 299 301 303 305 306 306 309 311 310 312 314 315 315 314 315 316 316 317 317 316 316 314
248 249 252 256 261 264 265 267 268 271 275 278 278 281 284 284 285 286 289 293 296 298 300 302 304 305 305 307 309 310 311 313 314 314 314 315 315 316 317 317 317 316 315 314